Regional Weather Roundup
Issued by NWS

Home | Current Version | Previous Version | Text Only | Print | Product List | Glossary On
Versions: 1 2 3 4 5 6 7 8 9 10 11 12 13 14 15 16 17 18 19 20 21 22 23 24 25 26 27
000
ASUS43 KDMX 170007
RWRIA

WEATHER ROUNDUP FOR IOWA
NATIONAL WEATHER SERVICE DES MOINES IA
700 PM CDT WED APR 16 2014

NOTE: "FAIR" INDICATES FEW OR NO CLOUDS BELOW 12,000 FEET WITH NO
SIGNIFICANT WEATHER AND/OR OBSTRUCTIONS TO VISIBILITY.

* - THESE STATIONS ARE NOT NWS STATIONS...THUS NOT UNDER NWS
QUALITY CONTROL.  THEY ALSO DO NOT REPORT WEATHER SUCH
AS PRECIPITATION OR FOG.

IAZ001>003-012>014-020>022-031>034-043>046-170100-
   NORTHWEST IOWA

CITY           SKY/WX    TMP DP  RH WIND       PRES   REMARKS
CARROLL *      CLOUDY    46  37  71 W28G33    29.76R
CHEROKEE *     LGT RAIN  42  39  91 N16G25    29.80R
DENISON *      CLOUDY    43  37  81 NW20G25   29.79R
LE MARS *      CLOUDY    36  34  93 NW23G33   29.87R WCI  24
ORANGE CITY *  DRIZZLE   36  32  87 N20G26    29.85R WCI  25
SHELDON *      MIX PCPN  34  32  93 N23G32    29.83R WCI  22
SIOUX CITY     FLURRIES  37  33  85 NW29G41   29.86R WCI  25
6HR MIN TEMP:  37; 6HR MAX TEMP:  61; 6HR PCP: TRACE;

SPENCER        LGT RAIN  40  36  86 N20       29.79R FOG     WCI  30
6HR MIN TEMP:  40; 6HR MAX TEMP:  60; 6HR PCP:  0.04;

STORM LAKE *   LGT RAIN  45  41  87 NW14      29.75R
$$

IAZ055>058-069>071-079>083-090>094-170100-
   SOUTHWEST IOWA

CITY           SKY/WX    TMP DP  RH WIND       PRES   REMARKS
ATLANTIC *     CLOUDY    46  34  61 NW24G36   29.80R
AUDUBON *      PTSUNNY   46  32  57 W20G25    29.80R
CLARINDA *     MOSUNNY   57  36  44 NW23G32   29.82R
COUNCIL BLFS * SUNNY     43  34  70 NW22G30   29.84R
CRESTON *      CLOUDY    59  34  38 S28G33    29.74S
HARLAN  *      PTSUNNY   45  34  65 NW28G37   29.85R
LAMONI         PTCLDY    61  32  33 S22G32    29.80S
6HR MIN TEMP:  58; 6HR MAX TEMP:  64;

RED OAK *      MOSUNNY   50  34  53 NW20G30   29.83R
SHENANDOAH *   MOSUNNY   52  36  54 NW18G26   29.85R
$$

IAZ047>049-059>061-072>074-084-170100-
   CENTRAL IOWA

CITY           SKY/WX    TMP DP  RH WIND       PRES   REMARKS
AMES           CLOUDY    60  32  34 S15G24    29.74F
6HR MIN TEMP:  59; 6HR MAX TEMP:  64;

ANKENY *       CLOUDY    63  32  31 S17G30    29.76S
CHARITON *     MOCLDY    61  34  36 S21G29    29.81S
DES MOINES     MOCLDY    63  32  31 S21G37    29.76F
6HR MIN TEMP:  62; 6HR MAX TEMP:  66;

GRINNELL*      CLOUDY    57  32  38 S18G24    29.83F
KNOXVILLE *    CLOUDY    61  34  36 S22G30    29.80F
MARSHALLTOWN   CLOUDY    57  34  41 S21       29.79F
6HR MIN TEMP:  57; 6HR MAX TEMP:  60;

NEWTON *       CLOUDY    59  34  38 S21       29.81S
PELLA *        CLOUDY    60  34  37 S16G26    29.84S
PERRY *        CLOUDY    60  29  31 S21G26    29.71S
$$

IAZ004>006-015-016-023>025-035-036-170100-
   NORTH CENTRAL IOWA

CITY           SKY/WX    TMP DP  RH WIND       PRES   REMARKS
ALGONA *       LGT RAIN  43  39  87 N28G36    29.75R
CLARION *      CLOUDY    57  34  41 S23G30    29.69F
ESTHERVILLE    LGT RAIN  39  38  96 N18       29.78R FOG     WCI  30
6HR MIN TEMP:  39; 6HR MAX TEMP:  56; 6HR PCP:  0.03;

FORT DODGE *   CLOUDY    57  34  41 NW16G26   29.73R
MASON CITY     CLOUDY    52  37  56 SE12      29.74F
6HR MIN TEMP:  52; 6HR MAX TEMP:  59; 6HR PCP: TRACE;

FOREST CITY *  CLOUDY    52  36  54 SE12      29.72S
IOWA FALLS *   CLOUDY    56  35  44 SE18      29.76F
$$

IAZ007>011-017>019-026>030-037>042-050>054-066-170100-
   NORTHEAST IOWA

CITY           SKY/WX    TMP DP  RH WIND       PRES   REMARKS
CEDAR RAPIDS   CLOUDY    55  28  35 S21G28    29.89S
6HR MIN TEMP:  55; 6HR MAX TEMP:  59;

CHARLES CITY * CLOUDY    54  34  47 SE17G25   29.79F
CLINTON *      CLOUDY    52  27  37 S15G24    30.02R
DECORAH *      CLOUDY    52  30  43 SE18G28   29.85F
DUBUQUE        CLOUDY    51  27  39 S24G32    29.96R
6HR MIN TEMP:  50; 6HR MAX TEMP:  55;

MONTICELLO *   CLOUDY    54  30  40 S18G30    29.94S
OELWEIN *      CLOUDY   N/A N/A N/A S22G29    29.86F
WATERLOO       CLOUDY    55  31  39 S17G28    29.81F
6HR MIN TEMP:  54; 6HR MAX TEMP:  60;

$$

IAZ064-065-067-068-078-170100-
   EAST CENTRAL IOWA

CITY           SKY/WX    TMP DP  RH WIND       PRES   REMARKS
DAVENPORT      CLOUDY    53  26  35 S25G36    29.98R
6HR MIN TEMP:  53; 6HR MAX TEMP:  58;

IOWA CITY      MOCLDY    56  29  35 S20G31    29.94R
6HR MIN TEMP:  55; 6HR MAX TEMP:  60;

MT. PLEASANT * PTCLDY    56  26  31 S16       29.95R
MUSCATINE *    MOCLDY    55  28  35 S18G25    29.96R
QUAD CITIES    CLOUDY    53  26  35 S16G26    29.97R
6HR MIN TEMP:  53; 6HR MAX TEMP:  59;

$$

IAZ062-063-075>077-085>089-095>099-170100-
   SOUTHEAST IOWA

CITY           SKY/WX    TMP DP  RH WIND       PRES   REMARKS
BURLINGTON     MOCLDY    55  28  35 S15       29.97R
6HR MIN TEMP:  55; 6HR MAX TEMP:  59;

FAIRFIELD *    CLOUDY    59  28  31 S17G26    29.91S
FORT MADISON * MOCLDY    55  30  38 S13G26    29.97R
KEOKUK *       MOCLDY    57  28  33 S10G18    29.96R
OSKALOOSA *    CLOUDY    58  33  39 S17G25    29.87S
CENTERVILLE *    N/A     59  34  38 S15G24    29.88S
OTTUMWA        CLOUDY    58  30  34 S18G26    29.87S
6HR MIN TEMP:  58; 6HR MAX TEMP:  62;

WASHINGTON *   MOCLDY    57  30  35 S17       29.92S
$$

ABBREVIATIONS USED IN REMARKS
   TC - TEMPERATURES IN CELSIUS
  WCI - WIND CHILL INDEX
   HX - HEAT INDEX
  VSB - VISIBILITY
$$




USA.gov is the U.S. government's official web portal to all federal, state and local government web resources and services.